Year,Month,Day,Hour,Minute,Value (Times are PST for temperature in C)
2021,06,25,00,00,16.70
2021,06,25,00,01,16.70
2021,06,25,00,02,16.60
2021,06,25,00,03,16.60
2021,06,25,00,04,16.60
2021,06,25,00,05,16.60
2021,06,25,00,06,16.60
2021,06,25,00,07,16.60
2021,06,25,00,08,16.60
2021,06,25,00,09,16.50
2021,06,25,00,10,16.50
2021,06,25,00,11,16.50
2021,06,25,00,12,16.50
2021,06,25,00,13,16.50
2021,06,25,00,14,16.50
2021,06,25,00,15,16.50
2021,06,25,00,16,16.50
2021,06,25,00,17,16.50
2021,06,25,00,18,16.50
2021,06,25,00,19,16.50
2021,06,25,00,20,16.50
2021,06,25,00,21,16.50
2021,06,25,00,22,16.50
2021,06,25,00,23,16.50
2021,06,25,00,24,16.50
2021,06,25,00,25,16.50
2021,06,25,00,26,16.50
2021,06,25,00,27,16.50
2021,06,25,00,28,16.50
2021,06,25,00,29,16.50
2021,06,25,00,30,16.50
2021,06,25,00,31,16.50
2021,06,25,00,32,16.50
2021,06,25,00,33,16.50
2021,06,25,00,34,16.50
2021,06,25,00,35,16.50
2021,06,25,00,36,16.50
2021,06,25,00,37,16.50
2021,06,25,00,38,16.50
2021,06,25,00,39,16.50
2021,06,25,00,40,16.50
2021,06,25,00,41,16.40
2021,06,25,00,42,16.40
2021,06,25,00,43,16.40
2021,06,25,00,44,16.40
2021,06,25,00,45,16.40
2021,06,25,00,46,16.40
2021,06,25,00,47,16.40
2021,06,25,00,48,16.40
2021,06,25,00,49,16.30
2021,06,25,00,50,16.30
2021,06,25,00,51,16.30
2021,06,25,00,52,16.30
2021,06,25,00,53,16.30
2021,06,25,00,54,16.30
2021,06,25,00,55,16.30
2021,06,25,00,56,16.30
2021,06,25,00,57,16.30
2021,06,25,00,58,16.30
2021,06,25,00,59,16.30
2021,06,25,01,00,16.30
2021,06,25,01,01,16.30
2021,06,25,01,02,16.30
2021,06,25,01,03,16.30
2021,06,25,01,04,16.20
2021,06,25,01,05,16.20
2021,06,25,01,06,16.20
2021,06,25,01,07,16.20
2021,06,25,01,08,16.20
2021,06,25,01,09,16.20
2021,06,25,01,10,16.30
2021,06,25,01,11,16.30
2021,06,25,01,12,16.30
2021,06,25,01,13,16.30
2021,06,25,01,14,16.30
2021,06,25,01,15,16.30
2021,06,25,01,16,16.30
2021,06,25,01,17,16.30
2021,06,25,01,18,16.30
2021,06,25,01,19,16.30
2021,06,25,01,20,16.30
2021,06,25,01,21,16.30
2021,06,25,01,22,16.30
2021,06,25,01,23,16.30
2021,06,25,01,24,16.30
2021,06,25,01,25,16.30
2021,06,25,01,26,16.30
2021,06,25,01,27,16.40
2021,06,25,01,28,16.40
2021,06,25,01,29,16.40
2021,06,25,01,30,16.40
2021,06,25,01,31,16.40
2021,06,25,01,32,16.40
2021,06,25,01,33,16.40
2021,06,25,01,34,16.40
2021,06,25,01,35,16.40
2021,06,25,01,36,16.50
2021,06,25,01,37,16.50
2021,06,25,01,38,16.50
2021,06,25,01,39,16.50
2021,06,25,01,40,16.50
2021,06,25,01,41,16.50
2021,06,25,01,42,16.50
2021,06,25,01,43,16.60
2021,06,25,01,44,16.60
2021,06,25,01,45,16.60
2021,06,25,01,46,16.60
2021,06,25,01,47,16.60
2021,06,25,01,48,16.60
2021,06,25,01,49,16.60
2021,06,25,01,50,16.60
2021,06,25,01,51,16.60
2021,06,25,01,52,16.60
2021,06,25,01,53,16.70
2021,06,25,01,54,16.70
2021,06,25,01,55,16.70
2021,06,25,01,56,16.70
2021,06,25,01,57,16.70
2021,06,25,01,58,16.70
2021,06,25,01,59,16.70
2021,06,25,02,00,16.70
2021,06,25,02,01,16.70
2021,06,25,02,02,16.70
2021,06,25,02,03,16.70
2021,06,25,02,04,16.70
2021,06,25,02,05,16.70
2021,06,25,02,06,16.70
2021,06,25,02,07,16.70
2021,06,25,02,08,16.70
2021,06,25,02,09,16.70
2021,06,25,02,10,16.70
2021,06,25,02,11,16.70
2021,06,25,02,12,16.70
2021,06,25,02,13,16.70
2021,06,25,02,14,16.70
2021,06,25,02,15,16.70
2021,06,25,02,16,16.60
2021,06,25,02,17,16.60
2021,06,25,02,18,16.60
2021,06,25,02,19,16.60
2021,06,25,02,20,16.60
2021,06,25,02,21,16.60
2021,06,25,02,22,16.60
2021,06,25,02,23,16.60
2021,06,25,02,24,16.60
2021,06,25,02,25,16.60
2021,06,25,02,26,16.60
2021,06,25,02,27,16.60
2021,06,25,02,28,16.60
2021,06,25,02,29,16.60
2021,06,25,02,30,16.60
2021,06,25,02,31,16.60
2021,06,25,02,32,16.60
2021,06,25,02,33,16.60
2021,06,25,02,34,16.60
2021,06,25,02,35,16.60
2021,06,25,02,36,16.70
2021,06,25,02,37,16.70
2021,06,25,02,38,16.70
2021,06,25,02,39,16.70
2021,06,25,02,40,16.70
2021,06,25,02,41,16.70
2021,06,25,02,42,16.70
2021,06,25,02,43,16.70
2021,06,25,02,44,16.70
2021,06,25,02,45,16.70
2021,06,25,02,46,16.80
2021,06,25,02,47,16.80
2021,06,25,02,48,16.80
2021,06,25,02,49,16.80
2021,06,25,02,50,16.80
2021,06,25,02,51,16.80
2021,06,25,02,52,16.80
2021,06,25,02,53,16.80
2021,06,25,02,54,16.80
2021,06,25,02,55,16.80
2021,06,25,02,56,16.80
2021,06,25,02,57,16.80
2021,06,25,02,58,16.80
2021,06,25,02,59,16.80
2021,06,25,03,00,16.80
2021,06,25,03,01,16.80
2021,06,25,03,02,16.80
2021,06,25,03,03,16.80
2021,06,25,03,04,16.80
2021,06,25,03,05,16.80
2021,06,25,03,06,16.80
2021,06,25,03,07,16.80
2021,06,25,03,08,16.80
2021,06,25,03,09,16.80
2021,06,25,03,10,16.80
2021,06,25,03,11,16.90
2021,06,25,03,12,16.90
2021,06,25,03,13,16.90
2021,06,25,03,14,16.90
2021,06,25,03,15,16.90
2021,06,25,03,16,16.90
2021,06,25,03,17,16.90
2021,06,25,03,18,16.90
2021,06,25,03,19,16.90
2021,06,25,03,20,17.00
2021,06,25,03,21,17.00
2021,06,25,03,22,17.00
2021,06,25,03,23,17.10
2021,06,25,03,24,17.10
2021,06,25,03,25,17.10
2021,06,25,03,26,17.10
2021,06,25,03,27,17.10
2021,06,25,03,28,17.10
2021,06,25,03,29,17.10
2021,06,25,03,30,17.10
2021,06,25,03,31,17.20
2021,06,25,03,32,17.20
2021,06,25,03,33,17.20
2021,06,25,03,34,17.20
2021,06,25,03,35,17.20
2021,06,25,03,36,17.20
2021,06,25,03,37,17.30
2021,06,25,03,38,17.30
2021,06,25,03,39,17.30
2021,06,25,03,40,17.30
2021,06,25,03,41,17.30
2021,06,25,03,42,17.30
2021,06,25,03,43,17.30
2021,06,25,03,44,17.30
2021,06,25,03,45,17.30
2021,06,25,03,46,17.40
2021,06,25,03,47,17.40
2021,06,25,03,48,17.40
2021,06,25,03,49,17.40
2021,06,25,03,50,17.40
2021,06,25,03,51,17.40
2021,06,25,03,52,17.40
2021,06,25,03,53,17.30
2021,06,25,03,54,17.30
2021,06,25,03,55,17.30
2021,06,25,03,56,17.30
2021,06,25,03,57,17.30
2021,06,25,03,58,17.30
2021,06,25,03,59,17.30
2021,06,25,04,00,17.30
2021,06,25,04,01,17.30
2021,06,25,04,02,17.30
2021,06,25,04,03,17.30
2021,06,25,04,04,17.30
2021,06,25,04,05,17.30
2021,06,25,04,06,17.20
2021,06,25,04,07,17.20
2021,06,25,04,08,17.20
2021,06,25,04,09,17.20
2021,06,25,04,10,17.10
2021,06,25,04,11,17.10
2021,06,25,04,12,17.10
2021,06,25,04,13,17.10
2021,06,25,04,14,17.10
2021,06,25,04,15,17.10
2021,06,25,04,16,17.00
2021,06,25,04,17,17.00
2021,06,25,04,18,17.00
2021,06,25,04,19,16.90
2021,06,25,04,20,16.90
2021,06,25,04,21,16.90
2021,06,25,04,22,16.90
2021,06,25,04,23,16.90
2021,06,25,04,24,16.90
2021,06,25,04,25,16.90
2021,06,25,04,26,16.90
2021,06,25,04,27,16.90
2021,06,25,04,28,16.90
2021,06,25,04,29,16.90
2021,06,25,04,30,16.90
2021,06,25,04,31,16.90
2021,06,25,04,32,16.90
2021,06,25,04,33,16.90
2021,06,25,04,34,16.90
2021,06,25,04,35,16.90
2021,06,25,04,36,16.90
2021,06,25,04,37,16.80
2021,06,25,04,38,16.80
2021,06,25,04,39,16.80
2021,06,25,04,40,16.80
2021,06,25,04,41,16.80
2021,06,25,04,42,16.80
2021,06,25,04,43,16.80
2021,06,25,04,44,16.80
2021,06,25,04,45,16.80
2021,06,25,04,46,16.80
2021,06,25,04,47,16.80
2021,06,25,04,48,16.80
2021,06,25,04,49,16.80
2021,06,25,04,50,16.80
2021,06,25,04,51,16.80
2021,06,25,04,52,16.80
2021,06,25,04,53,16.80
2021,06,25,04,54,16.80
2021,06,25,04,55,16.80
2021,06,25,04,56,16.90
2021,06,25,04,57,16.90
2021,06,25,04,58,16.90
2021,06,25,04,59,16.90
2021,06,25,05,00,16.90
2021,06,25,05,01,16.90
2021,06,25,05,02,16.90
2021,06,25,05,03,16.90
2021,06,25,05,04,16.80
2021,06,25,05,05,16.80
2021,06,25,05,06,16.80
2021,06,25,05,07,16.80
2021,06,25,05,08,16.80
2021,06,25,05,09,16.80
2021,06,25,05,10,16.80
2021,06,25,05,11,16.80
2021,06,25,05,12,16.80
2021,06,25,05,13,16.80
2021,06,25,05,14,16.80
2021,06,25,05,15,16.80
2021,06,25,05,16,16.80
2021,06,25,05,17,16.80
2021,06,25,05,18,16.80
2021,06,25,05,19,16.70
2021,06,25,05,20,16.70
2021,06,25,05,21,16.70
2021,06,25,05,22,16.70
2021,06,25,05,23,16.70
2021,06,25,05,24,16.70
2021,06,25,05,25,16.70
2021,06,25,05,26,16.70
2021,06,25,05,27,16.70
2021,06,25,05,28,16.70
2021,06,25,05,29,16.70
2021,06,25,05,30,16.70
2021,06,25,05,31,16.70
2021,06,25,05,32,16.70
2021,06,25,05,33,16.70
2021,06,25,05,34,16.70
2021,06,25,05,35,16.70
2021,06,25,05,36,16.70
2021,06,25,05,37,16.70
2021,06,25,05,38,16.70
2021,06,25,05,39,16.70
2021,06,25,05,40,16.70
2021,06,25,05,41,16.70
2021,06,25,05,42,16.70
2021,06,25,05,43,16.70
2021,06,25,05,44,16.70
2021,06,25,05,45,16.70
2021,06,25,05,46,16.70
2021,06,25,05,47,16.70
2021,06,25,05,48,16.70
2021,06,25,05,49,16.70
2021,06,25,05,50,16.70
2021,06,25,05,51,16.70
2021,06,25,05,52,16.70
2021,06,25,05,53,16.70
2021,06,25,05,54,16.70
2021,06,25,05,55,16.70
2021,06,25,05,56,16.70
2021,06,25,05,57,16.70
2021,06,25,05,58,16.70
2021,06,25,05,59,16.80
2021,06,25,06,00,16.80
2021,06,25,06,01,16.80
2021,06,25,06,02,16.80
2021,06,25,06,03,16.80
2021,06,25,06,04,16.80
2021,06,25,06,05,16.80
2021,06,25,06,06,16.80
2021,06,25,06,07,16.80
2021,06,25,06,08,16.80
2021,06,25,06,09,16.80
2021,06,25,06,10,16.80
2021,06,25,06,11,16.90
2021,06,25,06,12,16.90
2021,06,25,06,13,16.90
2021,06,25,06,14,16.90
2021,06,25,06,15,16.90
2021,06,25,06,16,16.90
2021,06,25,06,17,16.90
2021,06,25,06,18,16.90
2021,06,25,06,19,16.90
2021,06,25,06,20,17.00
2021,06,25,06,21,17.00
2021,06,25,06,22,17.00
2021,06,25,06,23,17.10
2021,06,25,06,24,17.10
2021,06,25,06,25,17.10
2021,06,25,06,26,17.10
2021,06,25,06,27,17.20
2021,06,25,06,28,17.20
2021,06,25,06,29,17.30
2021,06,25,06,30,17.30
2021,06,25,06,31,17.40
2021,06,25,06,32,17.50
2021,06,25,06,33,17.70
2021,06,25,06,34,17.80
2021,06,25,06,35,17.90
2021,06,25,06,36,18.00
2021,06,25,06,37,18.10
2021,06,25,06,38,18.30
2021,06,25,06,39,18.40
2021,06,25,06,40,18.50
2021,06,25,06,41,18.60
2021,06,25,06,42,18.70
2021,06,25,06,43,18.80
2021,06,25,06,44,18.90
2021,06,25,06,45,19.00
2021,06,25,06,46,19.20
2021,06,25,06,47,19.30
2021,06,25,06,48,19.40
2021,06,25,06,49,19.50
2021,06,25,06,50,19.60
2021,06,25,06,51,19.70
2021,06,25,06,52,19.80
2021,06,25,06,53,19.90
2021,06,25,06,54,19.90
2021,06,25,06,55,20.00
2021,06,25,06,56,20.10
2021,06,25,06,57,20.20
2021,06,25,06,58,20.20
2021,06,25,06,59,20.30
2021,06,25,07,00,20.40
2021,06,25,07,01,20.50
2021,06,25,07,02,20.60
2021,06,25,07,03,20.70
2021,06,25,07,04,20.80
2021,06,25,07,05,20.90
2021,06,25,07,06,20.90
2021,06,25,07,07,21.00
2021,06,25,07,08,21.10
2021,06,25,07,09,21.20
2021,06,25,07,10,21.30
2021,06,25,07,11,21.40
2021,06,25,07,12,21.50
2021,06,25,07,13,21.60
2021,06,25,07,14,21.70
2021,06,25,07,15,21.80
2021,06,25,07,16,21.90
2021,06,25,07,17,22.00
2021,06,25,07,18,22.10
2021,06,25,07,19,22.20
2021,06,25,07,20,22.20
2021,06,25,07,21,22.30
2021,06,25,07,22,22.30
2021,06,25,07,23,22.30
2021,06,25,07,24,22.30
2021,06,25,07,25,22.40
2021,06,25,07,26,22.40
2021,06,25,07,27,22.40
2021,06,25,07,28,22.30
2021,06,25,07,29,22.30
2021,06,25,07,30,22.30
2021,06,25,07,31,22.20
2021,06,25,07,32,22.20
2021,06,25,07,33,22.20
2021,06,25,07,34,22.20
2021,06,25,07,35,22.20
2021,06,25,07,36,22.20
2021,06,25,07,37,22.20
2021,06,25,07,38,22.20
2021,06,25,07,39,22.20
2021,06,25,07,40,22.20
2021,06,25,07,41,22.30
2021,06,25,07,42,22.30
2021,06,25,07,43,22.30
2021,06,25,07,44,22.30
2021,06,25,07,45,22.30
2021,06,25,07,46,22.30
2021,06,25,07,47,22.40
2021,06,25,07,48,22.40
2021,06,25,07,49,22.40
2021,06,25,07,50,22.50
2021,06,25,07,51,22.50
2021,06,25,07,52,22.60
2021,06,25,07,53,22.60
2021,06,25,07,54,22.60
2021,06,25,07,55,22.70
2021,06,25,07,56,22.70
2021,06,25,07,57,22.80
2021,06,25,07,58,22.80
2021,06,25,07,59,22.80
2021,06,25,08,00,22.80
2021,06,25,08,01,22.80
2021,06,25,08,02,22.90
2021,06,25,08,03,22.90
2021,06,25,08,04,22.80
2021,06,25,08,05,22.90
2021,06,25,08,06,22.90
2021,06,25,08,07,22.80
2021,06,25,08,08,22.80
2021,06,25,08,09,22.80
2021,06,25,08,10,22.80
2021,06,25,08,11,22.90
2021,06,25,08,12,22.90
2021,06,25,08,13,22.90
2021,06,25,08,14,22.90
2021,06,25,08,15,23.00
2021,06,25,08,16,23.00
2021,06,25,08,17,23.00
2021,06,25,08,18,23.10
2021,06,25,08,19,23.10
2021,06,25,08,20,23.20
2021,06,25,08,21,23.20
2021,06,25,08,22,23.30
2021,06,25,08,23,23.30
2021,06,25,08,24,23.40
2021,06,25,08,25,23.40
2021,06,25,08,26,23.50
2021,06,25,08,27,23.50
2021,06,25,08,28,23.60
2021,06,25,08,29,23.60
2021,06,25,08,30,23.60
2021,06,25,08,31,23.70
2021,06,25,08,32,23.70
2021,06,25,08,33,23.70
2021,06,25,08,34,23.70
2021,06,25,08,35,23.80
2021,06,25,08,36,23.80
2021,06,25,08,37,23.80
2021,06,25,08,38,23.80
2021,06,25,08,39,23.80
2021,06,25,08,40,23.80
2021,06,25,08,41,23.90
2021,06,25,08,42,23.90
2021,06,25,08,43,23.90
2021,06,25,08,44,23.90
2021,06,25,08,45,23.90
2021,06,25,08,46,23.90
2021,06,25,08,47,23.90
2021,06,25,08,48,24.00
2021,06,25,08,49,24.00
2021,06,25,08,50,24.10
2021,06,25,08,51,24.10
2021,06,25,08,52,24.10
2021,06,25,08,53,24.20
2021,06,25,08,54,24.20
2021,06,25,08,55,24.30
2021,06,25,08,56,24.30
2021,06,25,08,57,24.40
2021,06,25,08,58,24.40
2021,06,25,08,59,24.50
2021,06,25,09,00,24.50
2021,06,25,09,01,24.60
2021,06,25,09,02,24.60
2021,06,25,09,03,24.60
2021,06,25,09,04,24.70
2021,06,25,09,05,24.70
2021,06,25,09,06,24.70
2021,06,25,09,07,24.80
2021,06,25,09,08,24.80
2021,06,25,09,09,24.80
2021,06,25,09,10,24.90
2021,06,25,09,11,24.80
2021,06,25,09,12,24.80
2021,06,25,09,13,24.80
2021,06,25,09,14,24.90
2021,06,25,09,15,24.90
2021,06,25,09,16,24.90
2021,06,25,09,17,24.90
2021,06,25,09,18,24.80
2021,06,25,09,19,24.90
2021,06,25,09,20,24.90
2021,06,25,09,21,25.00
2021,06,25,09,22,25.00
2021,06,25,09,23,25.00
2021,06,25,09,24,25.10
2021,06,25,09,25,25.20
2021,06,25,09,26,25.20
2021,06,25,09,27,25.20
2021,06,25,09,28,25.20
2021,06,25,09,29,25.20
2021,06,25,09,30,25.20
2021,06,25,09,31,25.20
2021,06,25,09,32,25.20
2021,06,25,09,33,25.20
2021,06,25,09,34,25.20
2021,06,25,09,35,25.20
2021,06,25,09,36,25.10
2021,06,25,09,37,25.00
2021,06,25,09,38,25.00
2021,06,25,09,39,25.00
2021,06,25,09,40,24.90
2021,06,25,09,41,24.90
2021,06,25,09,42,24.90
2021,06,25,09,43,24.90
2021,06,25,09,44,24.90
2021,06,25,09,45,24.90
2021,06,25,09,46,24.90
2021,06,25,09,47,24.80
2021,06,25,09,48,24.80
2021,06,25,09,49,24.80
2021,06,25,09,50,24.80
2021,06,25,09,51,24.80
2021,06,25,09,52,24.80
2021,06,25,09,53,24.80
2021,06,25,09,54,24.80
2021,06,25,09,55,24.80
2021,06,25,09,56,24.90
2021,06,25,09,57,24.90
2021,06,25,09,58,24.90
2021,06,25,09,59,24.90
2021,06,25,10,00,24.90
2021,06,25,10,01,24.90
2021,06,25,10,02,24.90
2021,06,25,10,03,24.90
2021,06,25,10,04,24.90
2021,06,25,10,05,24.90
2021,06,25,10,06,24.90
2021,06,25,10,07,24.80
2021,06,25,10,08,24.80
2021,06,25,10,09,24.80
2021,06,25,10,10,24.80
2021,06,25,10,11,24.80
2021,06,25,10,12,24.90
2021,06,25,10,13,24.80
2021,06,25,10,14,24.80
2021,06,25,10,15,24.90
2021,06,25,10,16,24.90
2021,06,25,10,17,24.90
2021,06,25,10,18,24.80
2021,06,25,10,19,24.90
2021,06,25,10,20,24.90
2021,06,25,10,21,24.90
2021,06,25,10,22,24.90
2021,06,25,10,23,24.90
2021,06,25,10,24,25.00
2021,06,25,10,25,25.00
2021,06,25,10,26,25.00
2021,06,25,10,27,25.10
2021,06,25,10,28,25.10
2021,06,25,10,29,25.20
2021,06,25,10,30,25.20
2021,06,25,10,31,25.20
2021,06,25,10,32,25.30
2021,06,25,10,33,25.30
2021,06,25,10,34,25.30
2021,06,25,10,35,25.40
2021,06,25,10,36,25.40
2021,06,25,10,37,25.40
2021,06,25,10,38,25.40
2021,06,25,10,39,25.40
2021,06,25,10,40,25.50
2021,06,25,10,41,25.50
2021,06,25,10,42,25.50
2021,06,25,10,43,25.50
2021,06,25,10,44,25.60
2021,06,25,10,45,25.60
2021,06,25,10,46,25.70
2021,06,25,10,47,25.70
2021,06,25,10,48,25.70
2021,06,25,10,49,25.70
2021,06,25,10,50,25.70
2021,06,25,10,51,25.80
2021,06,25,10,52,25.70
2021,06,25,10,53,25.70
2021,06,25,10,54,25.70
2021,06,25,10,55,25.70
2021,06,25,10,56,25.60
2021,06,25,10,57,25.60
2021,06,25,10,58,25.60
2021,06,25,10,59,25.60
2021,06,25,11,00,25.50
2021,06,25,11,01,25.50
2021,06,25,11,02,25.50
2021,06,25,11,03,25.60
2021,06,25,11,04,25.60
2021,06,25,11,05,25.60
2021,06,25,11,06,25.70
2021,06,25,11,07,25.70
2021,06,25,11,08,25.70
2021,06,25,11,09,25.70
2021,06,25,11,10,25.70
2021,06,25,11,11,25.80
2021,06,25,11,12,25.80
2021,06,25,11,13,25.80
2021,06,25,11,14,25.80
2021,06,25,11,15,25.80
2021,06,25,11,16,25.90
2021,06,25,11,17,25.90
2021,06,25,11,18,25.90
2021,06,25,11,19,26.00
2021,06,25,11,20,26.00
2021,06,25,11,21,26.00
2021,06,25,11,22,26.10
2021,06,25,11,23,26.10
2021,06,25,11,24,26.10
2021,06,25,11,25,26.20
2021,06,25,11,26,26.20
2021,06,25,11,27,26.20
2021,06,25,11,28,26.20
2021,06,25,11,29,26.20
2021,06,25,11,30,26.20
2021,06,25,11,31,26.30
2021,06,25,11,32,26.20
2021,06,25,11,33,26.20
2021,06,25,11,34,26.20
2021,06,25,11,35,26.20
2021,06,25,11,36,26.20
2021,06,25,11,37,26.30
2021,06,25,11,38,26.30
2021,06,25,11,39,26.40
2021,06,25,11,40,26.40
2021,06,25,11,41,26.50
2021,06,25,11,42,26.50
2021,06,25,11,43,26.50
2021,06,25,11,44,26.60
2021,06,25,11,45,26.60
2021,06,25,11,46,26.60
2021,06,25,11,47,26.60
2021,06,25,11,48,26.60
2021,06,25,11,49,26.60
2021,06,25,11,50,26.60
2021,06,25,11,51,26.60
2021,06,25,11,52,26.70
2021,06,25,11,53,26.70
2021,06,25,11,54,26.70
2021,06,25,11,55,26.70
2021,06,25,11,56,26.80
2021,06,25,11,57,26.80
2021,06,25,11,58,26.80
2021,06,25,11,59,26.80
2021,06,25,12,00,26.80
2021,06,25,12,01,26.80
2021,06,25,12,02,26.80
2021,06,25,12,03,26.80
2021,06,25,12,04,26.80
2021,06,25,12,05,26.90
2021,06,25,12,06,26.80
2021,06,25,12,07,26.80
2021,06,25,12,08,26.80
2021,06,25,12,09,26.80
2021,06,25,12,10,26.90
2021,06,25,12,11,26.90
2021,06,25,12,12,26.90
2021,06,25,12,13,27.00
2021,06,25,12,14,27.10
2021,06,25,12,15,27.10
2021,06,25,12,16,27.10
2021,06,25,12,17,27.10
2021,06,25,12,18,27.10
2021,06,25,12,19,27.20
2021,06,25,12,20,27.20
2021,06,25,12,21,27.20
2021,06,25,12,22,27.20
2021,06,25,12,23,27.30
2021,06,25,12,24,27.30
2021,06,25,12,25,27.30
2021,06,25,12,26,27.40
2021,06,25,12,27,27.40
2021,06,25,12,28,27.50
2021,06,25,12,29,27.60
2021,06,25,12,30,27.60
2021,06,25,12,31,27.60
2021,06,25,12,32,27.60
2021,06,25,12,33,27.60
2021,06,25,12,34,27.60
2021,06,25,12,35,27.60
2021,06,25,12,36,27.60
2021,06,25,12,37,27.60
2021,06,25,12,38,27.70
2021,06,25,12,39,27.70
2021,06,25,12,40,27.70
2021,06,25,12,41,27.70
2021,06,25,12,42,27.60
2021,06,25,12,43,27.60
2021,06,25,12,44,27.60
2021,06,25,12,45,27.60
2021,06,25,12,46,27.60
2021,06,25,12,47,27.60
2021,06,25,12,48,27.60
2021,06,25,12,49,27.60
2021,06,25,12,50,27.60
2021,06,25,12,51,27.60
2021,06,25,12,52,27.60
2021,06,25,12,53,27.60
2021,06,25,12,54,27.60
2021,06,25,12,55,27.60
2021,06,25,12,56,27.70
2021,06,25,12,57,27.70
2021,06,25,12,58,27.70
2021,06,25,12,59,27.70
2021,06,25,13,00,27.70
2021,06,25,13,01,27.70
2021,06,25,13,02,27.70
2021,06,25,13,03,27.70
2021,06,25,13,04,27.70
2021,06,25,13,05,27.70
2021,06,25,13,06,27.70
2021,06,25,13,07,27.70
2021,06,25,13,08,27.80
2021,06,25,13,09,27.80
2021,06,25,13,10,27.80
2021,06,25,13,11,27.80
2021,06,25,13,12,27.80
2021,06,25,13,13,27.80
2021,06,25,13,14,27.80
2021,06,25,13,15,27.80
2021,06,25,13,16,27.70
2021,06,25,13,17,27.70
2021,06,25,13,18,27.70
2021,06,25,13,19,27.70
2021,06,25,13,20,27.70
2021,06,25,13,21,27.70
2021,06,25,13,22,27.80
2021,06,25,13,23,27.80
2021,06,25,13,24,27.80
2021,06,25,13,25,27.80
2021,06,25,13,26,27.90
2021,06,25,13,27,27.90
2021,06,25,13,28,28.00
2021,06,25,13,29,28.00
2021,06,25,13,30,28.00
2021,06,25,13,31,28.00
2021,06,25,13,32,28.00
2021,06,25,13,33,28.00
2021,06,25,13,34,28.00
2021,06,25,13,35,28.00
2021,06,25,13,36,28.00
2021,06,25,13,37,28.00
2021,06,25,13,38,28.00
2021,06,25,13,39,28.10
2021,06,25,13,40,28.10
2021,06,25,13,41,28.10
2021,06,25,13,42,28.10
2021,06,25,13,43,28.10
2021,06,25,13,44,28.10
2021,06,25,13,45,28.10
2021,06,25,13,46,28.20
2021,06,25,13,47,28.20
2021,06,25,13,48,28.20
2021,06,25,13,49,28.30
2021,06,25,13,50,28.30
2021,06,25,13,51,28.30
2021,06,25,13,52,28.40
2021,06,25,13,53,28.40
2021,06,25,13,54,28.40
2021,06,25,13,55,28.50
2021,06,25,13,56,28.50
2021,06,25,13,57,28.60
2021,06,25,13,58,28.60
2021,06,25,13,59,28.70
2021,06,25,14,00,28.70
2021,06,25,14,01,28.70
2021,06,25,14,02,28.70
2021,06,25,14,03,28.70
2021,06,25,14,04,28.70
2021,06,25,14,05,28.60
2021,06,25,14,06,28.60
2021,06,25,14,07,28.60
2021,06,25,14,08,28.60
2021,06,25,14,09,28.70
2021,06,25,14,10,28.70
2021,06,25,14,11,28.70
2021,06,25,14,12,28.70
2021,06,25,14,13,28.70
2021,06,25,14,14,28.80
2021,06,25,14,15,28.80
2021,06,25,14,16,28.80
2021,06,25,14,17,28.80
2021,06,25,14,18,28.80
2021,06,25,14,19,28.80
2021,06,25,14,20,28.90
2021,06,25,14,21,28.90
2021,06,25,14,22,28.80
2021,06,25,14,23,28.80
2021,06,25,14,24,28.80
2021,06,25,14,25,28.80
2021,06,25,14,26,28.80
2021,06,25,14,27,28.70
2021,06,25,14,28,28.70
2021,06,25,14,29,28.70
2021,06,25,14,30,28.70
2021,06,25,14,31,28.70
2021,06,25,14,32,28.70
2021,06,25,14,33,28.70
2021,06,25,14,34,28.70
2021,06,25,14,35,28.70
2021,06,25,14,36,28.70
2021,06,25,14,37,28.80
2021,06,25,14,38,28.80
2021,06,25,14,39,28.80
2021,06,25,14,40,28.80
2021,06,25,14,41,28.80
2021,06,25,14,42,28.80
2021,06,25,14,43,28.90
2021,06,25,14,44,28.90
2021,06,25,14,45,29.00
2021,06,25,14,46,29.00
2021,06,25,14,47,29.10
2021,06,25,14,48,29.20
2021,06,25,14,49,29.20
2021,06,25,14,50,29.20
2021,06,25,14,51,29.20
2021,06,25,14,52,29.30
2021,06,25,14,53,29.30
2021,06,25,14,54,29.30
2021,06,25,14,55,29.40
2021,06,25,14,56,29.50
2021,06,25,14,57,29.50
2021,06,25,14,58,29.60
2021,06,25,14,59,29.60
2021,06,25,15,00,29.70
2021,06,25,15,01,29.70
2021,06,25,15,02,29.80
2021,06,25,15,03,29.80
2021,06,25,15,04,29.80
2021,06,25,15,05,29.90
2021,06,25,15,06,29.90
2021,06,25,15,07,30.00
2021,06,25,15,08,30.10
2021,06,25,15,09,30.10
2021,06,25,15,10,30.10
2021,06,25,15,11,30.20
2021,06,25,15,12,30.20
2021,06,25,15,13,30.20
2021,06,25,15,14,30.20
2021,06,25,15,15,30.20
2021,06,25,15,16,30.20
2021,06,25,15,17,30.20
2021,06,25,15,18,30.10
2021,06,25,15,19,30.10
2021,06,25,15,20,30.10
2021,06,25,15,21,30.10
2021,06,25,15,22,30.10
2021,06,25,15,23,30.10
2021,06,25,15,24,30.20
2021,06,25,15,25,30.20
2021,06,25,15,26,30.20
2021,06,25,15,27,30.20
2021,06,25,15,28,30.20
2021,06,25,15,29,30.30
2021,06,25,15,30,30.30
2021,06,25,15,31,30.30
2021,06,25,15,32,30.30
2021,06,25,15,33,30.40
2021,06,25,15,34,30.40
2021,06,25,15,35,30.40
2021,06,25,15,36,30.40
2021,06,25,15,37,30.50
2021,06,25,15,38,30.50
2021,06,25,15,39,30.60
2021,06,25,15,40,30.60
2021,06,25,15,41,30.60
2021,06,25,15,42,30.70
2021,06,25,15,43,30.70
2021,06,25,15,44,30.70
2021,06,25,15,45,30.70
2021,06,25,15,46,30.70
2021,06,25,15,47,30.70
2021,06,25,15,48,30.80
2021,06,25,15,49,30.80
2021,06,25,15,50,30.80
2021,06,25,15,51,30.90
2021,06,25,15,52,30.90
2021,06,25,15,53,30.90
2021,06,25,15,54,30.90
2021,06,25,15,55,30.90
2021,06,25,15,56,30.90
2021,06,25,15,57,30.90
2021,06,25,15,58,30.90
2021,06,25,15,59,30.90
2021,06,25,16,00,30.90
2021,06,25,16,01,31.00
2021,06,25,16,02,31.00
2021,06,25,16,03,31.10
2021,06,25,16,04,31.10
2021,06,25,16,05,31.20
2021,06,25,16,06,31.20
2021,06,25,16,07,31.30
2021,06,25,16,08,31.30
2021,06,25,16,09,31.30
2021,06,25,16,10,31.40
2021,06,25,16,11,31.40
2021,06,25,16,12,31.40
2021,06,25,16,13,31.50
2021,06,25,16,14,31.60
2021,06,25,16,15,31.60
2021,06,25,16,16,31.60
2021,06,25,16,17,31.60
2021,06,25,16,18,31.70
2021,06,25,16,19,31.70
2021,06,25,16,20,31.60
2021,06,25,16,21,31.60
2021,06,25,16,22,31.60
2021,06,25,16,23,31.60
2021,06,25,16,24,31.60
2021,06,25,16,25,31.60
2021,06,25,16,26,31.60
2021,06,25,16,27,31.70
2021,06,25,16,28,31.70
2021,06,25,16,29,31.70
2021,06,25,16,30,31.70
2021,06,25,16,31,31.70
2021,06,25,16,32,31.80
2021,06,25,16,33,31.80
2021,06,25,16,34,31.80
2021,06,25,16,35,31.80
2021,06,25,16,36,31.80
2021,06,25,16,37,31.90
2021,06,25,16,38,31.90
2021,06,25,16,39,32.00
2021,06,25,16,40,32.00
2021,06,25,16,41,32.10
2021,06,25,16,42,32.10
2021,06,25,16,43,32.20
2021,06,25,16,44,32.20
2021,06,25,16,45,32.20
2021,06,25,16,46,32.20
2021,06,25,16,47,32.20
2021,06,25,16,48,32.20
2021,06,25,16,49,32.30
2021,06,25,16,50,32.30
2021,06,25,16,51,32.30
2021,06,25,16,52,32.30
2021,06,25,16,53,32.30
2021,06,25,16,54,32.30
2021,06,25,16,55,32.40
2021,06,25,16,56,32.40
2021,06,25,16,57,32.50
2021,06,25,16,58,32.50
2021,06,25,16,59,32.50
2021,06,25,17,00,32.60
2021,06,25,17,01,32.60
2021,06,25,17,02,32.70
2021,06,25,17,03,32.70
2021,06,25,17,04,32.70
2021,06,25,17,05,32.80
2021,06,25,17,06,32.80
2021,06,25,17,07,32.70
2021,06,25,17,08,32.70
2021,06,25,17,09,32.70
2021,06,25,17,10,32.70
2021,06,25,17,11,32.70
2021,06,25,17,12,32.70
2021,06,25,17,13,32.70
2021,06,25,17,14,32.60
2021,06,25,17,15,32.60
2021,06,25,17,16,32.60
2021,06,25,17,17,32.60
2021,06,25,17,18,32.60
2021,06,25,17,19,32.60